Location: Chequamegon National Forest
(46.1070°N, 90.8420°W)
Time: 04:34:51
(UTC-05:00)

ISS - All Passes

Search period start: 26 May 2015 00:00
Search period end: 05 June 2015 00:00
Orbit: 399 x 404 km, 51.6° (Epoch: 26 May)

Date Brightness Start Highest point End Pass type
(mag) Time Alt. Az. Time Alt. Az. Time Alt. Az.
26 May - 00:39:52 10° SW 00:42:58 43° SE 00:46:05 10° ENE visible
26 May - 02:16:17 10° W 02:19:24 42° NNW 02:22:33 10° ENE visible
26 May - 03:53:23 10° WNW 03:56:19 30° N 03:59:16 10° ENE visible
26 May - 05:29:53 10° WNW 05:33:08 61° NNE 05:36:23 10° ESE daylight
26 May - 07:06:38 10° W 07:09:22 24° SW 07:12:05 10° SSE daylight
26 May - 23:47:11 10° SSW 23:49:52 25° SE 23:52:37 10° E visible
27 May - 01:22:53 10° WSW 01:26:06 60° NNW 01:29:21 10° ENE visible
27 May - 03:00:00 10° WNW 03:02:55 29° N 03:05:52 10° ENE visible
27 May - 04:36:41 10° WNW 04:39:49 43° NNE 04:42:59 10° E visible
27 May - 06:13:08 10° WNW 06:16:16 42° SW 06:19:23 10° SE daylight
27 May - 22:55:04 10° SSE 22:56:50 14° SE 22:58:41 10° E night (unlit)
28 May - 00:29:36 10° WSW 00:32:51 86° SSE 00:36:07 10° ENE visible
28 May - 02:06:32 10° WNW 02:09:31 32° N 02:12:32 10° ENE visible
28 May - 03:43:26 10° WNW 03:46:28 34° N 03:49:30 10° ENE visible
28 May - 05:19:49 10° WNW 05:23:06 75° SSW 05:26:21 10° SE daylight
28 May - 06:57:39 10° WSW 06:59:03 12° SW 07:00:22 10° SSW daylight
28 May - 23:36:30 10° SW 23:39:38 50° SSE 23:42:49 10° ENE visible
29 May - 01:13:02 10° W 01:16:08 39° NNW 01:19:14 10° ENE visible
29 May - 02:50:06 10° WNW 02:53:03 30° N 02:56:00 10° ENE visible
29 May - 04:26:35 10° WNW 04:29:51 68° NNE 04:33:06 10° ESE visible
29 May - 06:03:26 10° W 06:06:01 21° SW 06:08:33 10° S daylight
29 May - 22:43:40 10° SSW 22:46:30 28° SE 22:49:21 10° E visible
30 May - 00:19:35 10° W 00:22:47 54° NNW 00:26:00 10° ENE visible
30 May - 01:56:42 10° WNW 01:59:37 29° N 02:02:33 10° ENE visible
30 May - 03:33:20 10° WNW 03:36:30 46° NNE 03:39:40 10° E visible
30 May - 05:09:50 10° WNW 05:12:54 37° SW 05:15:56 10° SSE daylight
30 May - 21:51:20 10° S 21:53:24 16° SE 21:55:32 10° E visible
30 May - 23:26:13 10° WSW 23:29:27 84° NNW 23:32:44 10° ENE visible
31 May - 01:03:12 10° WNW 01:06:11 31° N 01:09:09 10° ENE visible
31 May - 02:40:03 10° WNW 02:43:07 35° NNE 02:46:10 10° E visible
31 May - 04:16:27 10° WNW 04:19:41 66° SSW 04:22:56 10° SE visible
31 May - 05:54:57 10° WSW 05:55:37 10° SW 05:56:09 10° SW daylight
31 May - 22:33:02 10° SW 22:36:12 57° SSE 22:39:25 10° ENE visible
01 Jun - 00:09:40 10° W 00:12:44 37° NNW 00:15:50 10° ENE visible
01 Jun - 01:46:43 10° WNW 01:49:40 30° N 01:52:38 10° ENE visible
01 Jun - 03:23:08 10° WNW 03:26:25 76° NNE 03:29:41 10° ESE visible
01 Jun - 05:00:08 10° W 05:02:33 19° SW 05:04:52 10° S daylight
01 Jun - 21:40:04 10° SSW 21:43:00 32° SE 21:45:58 10° ENE visible
01 Jun - 23:16:10 10° W 23:19:20 50° NNW 23:22:32 10° ENE visible
02 Jun - 00:53:17 10° WNW 00:56:12 29° N 00:59:07 10° ENE visible
02 Jun - 02:29:52 10° WNW 02:33:04 50° NNE 02:36:15 10° E visible
02 Jun - 04:06:25 10° WNW 04:09:23 32° SW 04:12:21 10° SSE visible
02 Jun - 20:47:33 10° S 20:49:51 18° SE 20:52:13 10° E daylight
02 Jun - 22:22:44 10° WSW 22:25:58 76° NNW 22:29:14 10° ENE visible
02 Jun - 23:59:46 10° WNW 00:02:43 30° N 00:05:40 10° ENE visible
03 Jun - 01:36:34 10° WNW 01:39:38 37° NNE 01:42:42 10° E visible
03 Jun - 03:12:58 10° WNW 03:16:10 57° SSW 03:19:23 10° SE visible
03 Jun - 19:56:23 10° SE 19:56:45 10° SE 19:57:16 10° ESE daylight
03 Jun - 21:29:27 10° SW 21:32:39 66° SSE 21:35:54 10° ENE visible
03 Jun - 23:06:12 10° W 23:09:14 35° NNW 23:12:17 10° ENE visible
04 Jun - 00:43:12 10° WNW 00:46:10 31° N 00:49:09 10° ENE visible
04 Jun - 02:19:37 10° WNW 02:22:52 84° NNE 02:26:08 10° ESE visible
04 Jun - 03:56:47 10° W 03:58:56 16° SW 04:01:02 10° S visible
04 Jun - 20:36:24 10° SSW 20:39:24 37° SE 20:42:27 10° ENE daylight
04 Jun - 22:12:38 10° W 22:15:47 46° NNW 22:18:56 10° ENE visible
04 Jun - 23:49:45 10° WNW 23:52:40 29° N 23:55:35 10° ENE visible
